CZ-6A DEB

Satellite information

Favourite Embed

Satellite Type and Status

DEBRISIN ORBIT

Key statistics

Satellite CZ-6A DEB at a glance.

Uptime

909

Days in orbit

Revolutions

≈ 14.1

Per day

Orbit

SSO

Sun Synchronous Orbit

Inclination

98.8

Latest

Satellite identification and parameters

Extended collection of information and parameters for CZ-6A DEB.

Object identification

Identified? True

Debris? True

Object name: CZ-6A DEB

International designator: 2022-151ADS

Object number (NORAD): 56594

Object ID (CCSDS): 56594

Country: PEOPLES REPUBLIC OF CHINA (PRC)

Current information (Y/N): Y

RCS size: SMALL

Orbital parameters

Period: 101.801 minutes

Inclination: 98.7982 deg

SMA: 7222.072 km

Apoapsis: 863.841 km

Periapsis: 824.033 km

RAAN: 134.4292 deg

Eccentricy: 0.002756

Argument of periapsis: 340.8024 deg

Mean anomaly: 19.2109 deg

Mean motion: 14.1452298 rev/day

Mean motion (dot): 0.0000035 rev/day2

B* drag term: 0.00020464 1/REarth

Two-line elements (TLE)

Creation date: May 7, 2025, 11:06 p.m.

Reference frame: TEME

Reference center: EARTH

Epoch: May 7, 2025, 8:26 p.m. UTC

TLE line 0: 0 CZ-6A DEB

TLE line 1: 1 56594U 22151ADS 25127.85158199 .00000350 00000-0 20464-3 0 9990

TLE line 2: 2 56594 98.7982 134.4292 0027560 340.8024 19.2109 14.14522980110189

Live tracking on map

Real-time ground track for satellite CZ-6A DEB.

In-orbit conjunctions

A list of the most updated potential collisions computed for object CZ-6A DEB.

Target Orbit TCA Probability of collision Miss distance Type
DELTA 1 DEB SSO 2025-03-30 02:14:43 0.0001848893 179.0 (m) DEBRIS
IRIDIUM 33 DEB LEO 2024-11-10 18:37:44 0.0001424428 199.0 (m) DEBRIS

Associated space launch

Chinese satellite reported for atmospheric/ocean/environmental/spatial parameter research purposes, details TBD.

CZ-6A DEB was lifted into orbit during the mission ‘Long March 6A | Yunhai 3’, on board a Long March 6A space rocket.

The launch took place on Nov. 11, 2022, 10:52 p.m. from Launch Complex 9A.

For more information about the launch, click the button.

Launch to space Long March 6A | Yunhai 3
Long March 6A | Yunhai 3

Agency: N/A

Status: Launch Successful

Launch date: Nov. 11, 2022, 10:52 p.m. UTC

Rocket: Long March 6A

Launch pad: Launch Complex 9A

Location: Taiyuan Satellite Launch Center, People's Republic of China

...

Latest news about this satellite

There are no fresh news available about this satellite. Check back as we update our databases every day.


Newsletter sign-up

Weekly statistics, charts and insights to help you stay on top of the space industry.